STARLINK-1685

Last updated on Fri Nov 06 2020 00:02:03 GMT+0000 (Coordinated Universal Time)

1 46540U 20070J 20310.58343750 -.00015435 00000-0 -14187-3 0 9993 2 46540 52.9892 293.6429 0007938 294.2430 78.8552 15.66156341 1781
UTC large
Height (km)
Speed (km/s)
/
Latitude / Longitude
Inclination (degrees)
Orbital Period (minutes)
Azimuth
Elevation
Range (km)
Doppler Factor

Next 0 passes for location: London (51.5072 / 0.1276)

Sorry there are no passes over London.